Satellite-Ground Cal/Val Site Overpasses Predictions

Prediction of Satellite NPP Overpassing Cal/Val Site: Antarctic Dome C

Ground Cal/Val Site Location: Latitude: -75.10, Longitude: 123.35; Satellite-Ground Site NADIR distance within 100 km.

Table of predicted overpasses for the next 14.0 days since TLE Epoch: 4/27/2018
Interval Starting Time Ending Time Minimum Distance Time Minimum Distance (km)
1 04/28/2018 14:42:15 04/28/2018 14:42:40 04/28/2018 14:42:28 50.55
2 04/29/2018 07:43:57 04/29/2018 07:44:17 04/29/2018 07:44:07 70.08
3 04/30/2018 07:25:04 04/30/2018 07:25:31 04/30/2018 07:25:17 37.87
4 05/02/2018 15:07:31 05/02/2018 15:07:38 05/02/2018 15:07:35 96.33
5 05/03/2018 14:48:31 05/03/2018 14:49:00 05/03/2018 14:48:45 15.00
6 05/05/2018 07:31:20 05/05/2018 07:31:50 05/05/2018 07:31:35 1.14
7 05/08/2018 14:54:47 05/08/2018 14:55:16 05/08/2018 14:55:02 21.55
8 05/09/2018 14:36:06 05/09/2018 14:36:21 05/09/2018 14:36:13 85.44
9 05/10/2018 07:37:38 05/10/2018 07:38:05 05/10/2018 07:37:51 34.91


NCC Satellite Cal/Val Overpasses Prediction Service
